RH
20 18 17 18 18 18 19 20 30 24 18 16 14 14 12 17 16 15 17 18 20 27 31 38 45 47 51 55 56 53 52 53 66 64 63 68 71 71 71 70 68 68 70 65
26 19 17 18 14 14 14 16 17 16 17 13 11 10 12 14 16 18 22 26 31 32 36 43 48 50 54 56 57 54 53 56 55 54 52 55 55 59 60 60 61 64 77 81
42 23 23 37 23 16 15 14 17 23 18 14 13 12 14 16 17 23 29 33 36 39 43 46 49 51 54 52 51 50 50 50 51 52 53 55 51 53 56 62 62 74 74 67
50 64 63 25 16 15 18 15 13 14 14 13 13 12 15 18 20 30 34 38 41 41 43 44 43 44 46 44 46 47 48 50 51 53 55 53 55 57 62 65 66 67 63 58
65 51 32 20 18 20 20 19 13 14 14 13 12 18 26 24 25 32 36 36 36 37 39 41 41 41 42 43 44 46 48 50 50 52 53 54 58 64 64 65 65 71 78 73
56 55 62 31 18 15 15 33 14 13 16 16 17 38 21 30 31 35 35 35 37 38 38 40 40 40 42 44 45 48 49 48 48 50 52 58 66 69 70 70 64 56 53 50
64 60 38 19 16 15 38 34 17 15 15 16 20 23 27 33 38 34 34 36 39 38 40 41 40 41 44 46 48 47 49 54 57 58 62 59 53 45 42 40 42 52 53 51
63 66 72 28 23 30 28 24 22 21 18 22 21 35 36 36 36 35 36 39 37 42 44 42 40 43 46 51 52 53 57 57 48 38 31 32 37 38 36 40 49 54 59 56
43 44 34 31 28 24 19 20 23 22 19 22 33 37 37 37 37 37 37 37 39 42 47 45 44 47 52 53 51 50 42 37 36 35 34 34 37 41 36 38 44 49 47 53
44 33 28 31 28 23 22 24 21 21 20 25 37 37 38 38 39 39 35 37 38 45 49 51 45 44 47 45 39 39 40 40 38 38 37 32 27 26 30 44 48 46 48 50
39 26 26 23 27 28 23 24 23 22 22 26 35 36 36 38 39 36 35 38 43 47 48 45 42 42 38 36 36 35 37 37 38 36 29 28 28 33 43 55 58 56 59 57
50 27 39 37 28 23 27 26 29 28 25 29 32 35 36 38 38 36 40 44 44 46 47 44 43 42 39 36 33 37 37 37 46 45 40 28 27 43 70 63 66 70 66 68
33 31 38 36 30 28 25 25 26 30 26 31 31 33 36 39 40 51 43 44 45 47 47 46 44 40 35 36 37 37 39 43 47 47 39 39 40 42 42 69 64 66 62 58
24 30 47 38 35 37 34 29 37 29 29 31 33 34 38 42 46 45 46 45 46 46 45 43 40 41 40 36 37 41 43 68 41 42 42 44 43 47 47 54 62 58 61 52
40 42 42 45 42 42 39 41 44 37 36 38 38 41 44 47 49 50 48 47 46 44 41 37 38 36 35 39 34 40 39 43 53 59 59 57 56 55 53 54 56 56 52 54
55 52 46 51 45 49 48 48 45 48 49 47 48 50 50 51 52 55 52 53 54 47 45 66 55 46 39 33 37 43 52 62 59 52 54 53 54 56 52 56 57 58 58 59
63 62 60 60 54 53 50 50 49 57 59 58 62 64 58 67 71 71 67 69 84 85 74 72 78 78 47 36 36 42 50 56 64 54 52 52 56 60 56 60 63 62 63 67
56 55 55 55 55 58 61 61 64 66 71 74 94 91 88 89 91 92 93 93 94 94 91 89 82 51 43 42 42 48 53 52 54 58 55 66 64 58 62 64 63 63 65 65
61 62 61 59 60 68 78 87 93 95 96 93 91 94 94 95 95 96 96 95 95 93 91 77 72 61 62 65 51 55 60 63 57 53 62 63 70 64 68 72 70 72 69 69
88 87 87 90 90 95 97 97 94 96 96 95 96 96 96 96 96 96 96 95 92 88 76 65 53 53 51 54 54 52 64 72 62 64 72 73 75 78 75 68 69 73 77 76
97 97 97 96 97 97 98 98 97 97 98 97 96 96 96 96 95 96 93 87 88 76 68 62 53 50 47 48 44 73 72 74 73 73 76 77 78 74 76 76 77 77 78 78
97 97 97 97 96 97 97 97 96 96 96 96 96 96 95 94 95 95 95 86 80 76 64 60 58 68 60 59 57 73 68 67 70 73 75 77 78 79 79 78 78 78 78 78
97 96 95 96 95 95 95 96 96 96 96 95 95 94 93 90 89 88 89 76 69 68 62 75 77 74 61 78 77 75 74 73 75 76 77 80 81 82 81 79 78 78 78 77
95 95 96 96 93 89 90 91 89 92 95 94 95 96 89 90 88 73 75 80 78 89 89 87 82 68 77 78 78 78 77 78 78 80 78 76 82 83 80 79 78 76 76 76
94 95 94 93 88 91 88 89 87 87 86 84 86 85 86 85 91 91 89 87 81 80 86 81 74 74 79 78 80 79 79 80 83 79 77 81 81 81 79 78 77 77 77 78
87 85 82 83 85 82 84 80 85 86 83 86 86 89 88 82 81 81 81 78 76 73 79 82 82 77 78 79 79 77 79 76 79 81 81 79 80 79 77 75 76 76 78 78
75 72 67 70 72 74 76 76 82 85 84 88 86 86 84 86 83 78 81 82 82 79 80 78 78 79 75 80 77 80 80 79 83 78 77 79 78 78 78 78 78 78 79 80
Wind_Speed
22 20 15 20 21 21 21 18 17 15 16 13 12 8 10 6 2 4 6 7 7 8 9 10 10 9 11 9 9 9 8 9 8 7 8 8 9 9 9 8 8 8 7 8
23 21 18 18 18 18 19 18 18 18 19 13 11 11 9 9 5 8 6 5 6 6 9 9 10 10 10 10 9 8 11 10 10 9 10 9 8 9 8 8 9 7 9 8
16 17 18 18 17 20 18 18 16 18 15 15 14 12 8 11 7 7 8 8 9 9 9 9 10 11 11 11 10 11 12 12 11 11 10 10 9 9 9 8 8 7 8 8
10 3 19 9 16 20 21 21 19 18 18 17 16 14 6 2 7 8 10 10 11 11 11 12 12 13 13 12 12 13 13 12 12 11 11 11 10 10 9 8 7 7 6 3
9 12 14 18 14 11 14 17 18 18 17 16 13 3 5 5 8 12 13 13 12 12 13 13 13 13 13 13 13 13 13 12 12 11 11 10 10 9 7 6 5 5 4 2
7 15 19 13 16 14 14 16 16 14 13 8 5 7 10 15 14 13 13 12 13 13 13 13 13 13 14 13 13 13 12 12 11 10 9 9 8 7 4 4 5 4 5 4
12 9 8 10 13 12 15 11 5 4 7 8 10 11 7 17 16 15 13 14 13 13 12 13 13 13 13 13 13 13 12 11 10 8 8 7 7 5 4 4 2 2 1 3
10 13 17 4 9 12 15 16 7 9 8 9 7 9 16 17 18 17 17 15 14 13 13 13 13 13 14 13 12 12 12 11 10 8 6 5 5 4 3 3 2 1 3 4
9 6 9 14 13 17 16 13 9 11 8 10 14 16 18 18 18 17 18 16 14 14 14 12 12 12 14 13 13 12 11 10 9 8 6 5 4 4 2 3 3 4 3 4
13 11 12 9 15 15 9 15 13 10 10 12 17 18 19 18 18 17 17 15 14 15 15 14 12 12 12 12 12 11 10 9 7 6 5 4 4 3 4 4 4 3 4 5
16 17 18 14 11 12 14 10 11 8 11 14 16 19 20 19 18 16 16 15 14 14 14 13 13 12 12 11 11 10 9 7 6 5 4 4 5 6 4 7 5 4 5 5
8 11 8 11 10 4 13 14 13 13 13 15 18 19 20 17 16 16 15 15 14 15 14 14 13 12 10 9 10 10 9 6 4 4 3 2 3 7 8 10 8 7 5 4
12 11 8 11 6 9 12 11 10 13 14 15 16 16 18 15 16 15 16 15 14 14 14 13 12 11 9 8 8 9 8 8 4 3 3 3 2 1 0 5 7 8 6 2
14 11 10 10 5 3 8 8 7 10 11 13 15 15 16 15 15 16 16 15 15 14 13 13 12 11 8 9 10 9 8 6 5 4 3 2 3 2 2 2 3 2 8 1
9 6 12 7 4 3 4 6 6 8 8 11 13 14 15 17 17 15 15 15 15 14 14 13 12 11 9 8 8 7 5 4 5 4 4 2 1 1 2 3 3 4 5 3
7 7 8 8 6 2 5 9 11 11 9 8 11 12 13 14 15 15 15 15 16 13 14 11 11 10 8 7 8 7 6 5 4 3 2 1 0 2 2 3 4 4 5 5
8 8 7 8 6 5 6 5 6 9 14 12 11 14 15 16 16 16 16 16 14 12 11 12 13 9 6 6 5 3 4 4 3 1 1 1 2 2 3 3 4 4 5 4
8 8 7 7 5 5 5 5 8 11 12 15 14 18 19 16 16 15 15 14 13 12 11 10 8 7 8 7 6 4 3 2 1 1 1 1 3 3 3 4 5 5 5 6
11 8 8 9 8 10 11 13 13 14 15 16 17 16 17 16 14 13 13 13 13 12 9 9 9 9 8 6 4 3 3 2 1 1 3 2 4 3 4 4 5 6 6 7
14 14 15 16 16 14 14 13 15 15 14 15 16 16 16 14 13 13 11 11 10 9 10 8 7 7 6 5 3 4 2 2 2 2 2 4 4 4 5 5 5 6 7 7
13 13 14 15 15 14 14 13 15 15 14 14 15 15 15 13 13 13 12 9 9 10 9 6 4 4 4 3 0 2 1 2 2 3 4 4 5 5 5 6 6 7 7 7
13 14 14 16 16 17 16 15 16 16 16 16 14 14 14 14 12 12 10 10 7 8 6 5 5 6 4 2 2 2 2 3 4 4 4 5 5 6 6 6 7 7 7 8
15 15 16 17 17 18 18 16 16 16 15 13 13 12 11 8 6 7 8 9 6 5 4 6 6 4 1 2 2 3 4 4 4 4 5 5 5 6 6 7 7 7 8 8
16 16 16 15 14 15 18 16 16 16 14 13 12 9 8 7 8 8 9 10 9 5 6 4 4 2 4 3 3 3 4 5 5 5 5 5 6 6 6 7 7 7 8 9
16 15 14 14 14 11 13 13 12 12 12 12 11 10 10 9 7 6 7 6 5 3 5 5 3 3 4 4 4 4 5 6 6 6 7 7 7 7 7 7 8 8 8 9
15 12 12 17 13 10 10 9 9 8 7 8 8 8 7 7 6 6 6 6 5 4 4 3 4 4 5 5 5 6 6 6 6 6 6 7 8 8 7 8 8 8 8 9
14 14 11 12 11 11 11 11 9 9 9 8 8 8 7 6 6 5 5 5 5 4 4 4 5 5 5 6 7 7 6 6 6 6 7 8 8 7 7 8 8 8 8 8
Wind_Direction
232 247 229 223 214 224 232 232 241 253 258 245 256 275 299 42 35 224 237 241 213 199 163 147 149 146 123 126 131 140 141 135 134 137 137 139 155 151 155 156 137 121 123 135
237 237 249 255 254 244 243 229 244 247 257 268 284 273 261 280 234 237 198 195 182 167 151 135 142 136 125 127 124 131 118 114 117 114 110 104 101 97 108 120 111 123 129 138
238 237 240 237 243 255 249 251 238 248 261 265 269 269 260 251 211 218 173 163 155 140 134 133 122 132 125 126 124 120 115 111 110 109 109 110 109 111 116 116 131 135 149 167
215 261 238 252 246 237 244 254 252 247 255 266 276 286 322 186 206 172 159 145 142 135 130 125 121 117 122 119 118 116 114 115 115 116 112 116 114 116 118 128 137 158 168 194
223 223 250 240 231 230 241 248 246 252 261 267 300 122 185 225 171 165 156 147 138 129 126 126 126 124 121 119 118 117 113 112 114 116 114 116 115 119 124 125 116 86 91 154
191 231 232 236 237 217 247 254 253 258 264 273 199 227 255 172 155 146 148 143 140 133 128 125 127 128 126 123 120 118 119 118 119 120 116 109 107 104 111 145 174 184 197 204
218 238 245 223 230 192 208 252 198 228 259 257 242 237 120 151 155 157 153 145 140 139 134 132 134 133 128 127 122 118 110 104 106 104 113 133 139 138 133 116 81 79 298 308
232 235 232 121 149 204 222 239 229 224 234 242 214 134 148 157 159 153 153 150 150 142 141 141 142 139 134 126 120 123 121 130 135 123 115 116 120 114 114 89 41 327 342 325
215 235 216 183 215 219 243 275 220 245 220 205 163 165 164 166 163 163 159 160 156 149 143 142 139 141 140 136 134 140 128 122 122 121 111 93 96 79 77 30 12 19 335 334
255 248 233 207 243 268 280 246 259 227 218 195 177 174 173 169 170 170 167 163 157 152 151 146 146 138 137 141 137 135 133 128 117 115 111 101 105 68 71 43 22 2 345 343
248 245 273 265 265 260 257 261 263 238 218 200 181 180 177 175 173 173 166 160 156 156 149 144 138 137 139 140 143 136 126 119 105 111 108 120 82 37 67 69 38 356 20 353
246 253 264 247 248 256 243 234 234 242 220 186 189 182 178 176 172 168 162 156 160 155 150 145 142 136 137 142 131 130 126 117 100 117 98 84 91 139 82 101 114 106 79 18
268 281 271 291 306 285 251 237 220 235 229 195 185 181 180 171 171 159 156 162 158 151 142 138 130 121 116 110 121 124 118 121 114 117 96 82 83 54 143 163 173 162 155 137
244 256 269 243 245 245 264 242 189 214 227 198 180 175 172 166 151 160 159 154 142 136 132 126 119 107 103 101 98 91 98 46 109 100 89 82 50 21 351 333 310 265 169 101
304 229 269 317 280 201 194 149 190 189 199 192 166 169 164 160 160 153 141 131 130 128 127 122 116 102 91 94 99 100 88 82 88 93 67 51 38 338 314 307 308 303 302 273
323 306 268 262 262 197 212 163 171 165 160 171 162 154 148 144 135 119 123 127 133 131 110 101 96 91 91 97 106 105 86 69 53 98 126 97 329 308 304 302 303 306 307 330
301 288 266 255 232 223 217 221 165 162 135 141 144 135 124 108 92 94 95 92 94 98 93 87 82 77 68 75 93 99 99 91 39 132 77 15 315 301 312 305 302 306 311 353
314 312 318 302 238 166 140 129 133 140 124 108 95 102 108 108 110 108 106 102 93 83 80 84 93 92 74 57 60 62 70 68 53 46 340 334 330 307 302 305 304 307 314 319
16 26 40 58 70 77 71 72 73 82 91 103 105 101 101 102 107 108 109 106 105 104 94 95 97 92 81 62 67 72 65 29 351 31 336 299 266 309 306 311 312 314 309 311
49 51 59 66 71 85 92 86 86 84 86 93 98 100 98 101 111 108 98 87 87 102 113 114 102 94 96 81 22 77 50 20 334 329 344 311 305 316 300 296 302 303 309 308
58 64 70 72 72 73 79 87 92 92 93 93 95 96 96 94 94 101 99 97 102 105 108 116 109 108 81 97 103 63 9 330 310 308 300 303 301 291 309 307 309 309 309 312
57 62 67 72 73 70 65 71 76 79 81 83 87 92 92 87 79 74 90 109 121 136 126 117 87 45 77 298 31 339 320 303 299 299 298 302 304 306 306 309 308 307 313 307
65 64 64 65 68 70 66 64 69 77 81 83 85 83 81 85 100 110 107 113 117 114 106 81 101 104 64 288 336 317 305 304 289 296 299 298 303 304 304 304 308 307 303 310
63 61 63 65 68 71 73 70 72 71 72 71 68 71 88 93 81 72 85 88 102 86 77 98 108 78 320 329 316 318 306 306 311 298 297 298 287 293 298 302 298 303 306 302
55 60 62 63 67 69 77 79 81 79 80 79 74 66 59 40 78 87 91 96 90 63 104 91 58 357 304 333 327 321 311 310 319 330 313 304 304 300 298 301 300 305 313 301
61 61 60 56 53 55 60 64 62 56 71 78 67 64 64 65 72 76 72 64 59 39 31 20 20 344 325 327 335 319 312 310 308 311 318 306 300 296 298 300 302 304 304 308
55 51 57 55 48 48 47 45 52 50 34 37 63 50 49 61 59 53 39 39 20 18 4 3 344 2 342 343 321 315 317 312 319 325 317 302 299 301 303 305 309 311 308 305